AFR9492 LFPG-LFKB

Flight info

Callsign AFR9492
Flight time 1h 22m
Altitude 33000
Route LATRA DCT LAMUT DCT UTUVA DCT TITVA DCT NOQAS DCT OTROT DCT RETNO DCT KOLON DCT NARTI UP991 NIRDO
Aircraft B77L/H-SDE1E2E3FGHIJ2J3J4J5M1RWXY/LB1D1

Departure

Time 2026-05-07 20:53
Airport Charles de Gaulle International Airport (LFPG)

Arrival

Time 2026-05-07 22:15
Airport Bastia-Poretta International airport (LFKB)
Time Latitude Longitude Altitude Speed Heading
2026-05-07 20:02 48.99090 2.53237 405 ft 0 kts 266°
2026-05-07 20:40 48.99090 2.53238 406 ft 0 kts 266°
2026-05-07 20:40 48.99091 2.53261 406 ft 3 kts 266°
2026-05-07 20:40 48.99093 2.53288 406 ft 2 kts 266°
2026-05-07 20:40 48.99093 2.53314 406 ft 3 kts 285°
2026-05-07 20:41 48.99086 2.53338 406 ft 2 kts 314°
2026-05-07 20:41 48.99072 2.53354 406 ft 3 kts 339°
2026-05-07 20:41 48.99054 2.53362 406 ft 3 kts 352°
2026-05-07 20:41 48.99037 2.53365 406 ft 1 kts 354°
2026-05-07 20:42 48.99032 2.53366 406 ft 0 kts 354°
2026-05-07 20:45 48.99040 2.53365 406 ft 5 kts 354°
2026-05-07 20:45 48.99109 2.53355 406 ft 15 kts 355°
2026-05-07 20:45 48.99233 2.53341 406 ft 19 kts 356°
2026-05-07 20:45 48.99363 2.53328 406 ft 18 kts 356°
2026-05-07 20:46 48.99489 2.53314 406 ft 18 kts 355°
2026-05-07 20:46 48.99591 2.53313 406 ft 11 kts 11°
2026-05-07 20:46 48.99615 2.53348 406 ft 2 kts 63°
2026-05-07 20:46 48.99616 2.53353 406 ft 0 kts 63°
2026-05-07 20:47 48.99622 2.53370 406 ft 7 kts 64°
2026-05-07 20:47 48.99678 2.53471 406 ft 18 kts 39°
2026-05-07 20:47 48.99761 2.53579 406 ft 20 kts 49°
2026-05-07 20:47 48.99805 2.53765 406 ft 19 kts 85°
2026-05-07 20:48 48.99817 2.53974 406 ft 20 kts 84°
2026-05-07 20:48 48.99829 2.54187 406 ft 21 kts 85°
2026-05-07 20:48 48.99839 2.54388 406 ft 16 kts 85°
2026-05-07 20:48 48.99847 2.54532 406 ft 11 kts 85°
2026-05-07 20:49 48.99852 2.54636 406 ft 10 kts 85°
2026-05-07 20:49 48.99843 2.54767 406 ft 13 kts 126°
2026-05-07 20:49 48.99782 2.54830 406 ft 10 kts 152°
2026-05-07 20:49 48.99732 2.54906 406 ft 11 kts 119°
2026-05-07 20:50 48.99701 2.54995 406 ft 7 kts 117°
2026-05-07 20:50 48.99685 2.55046 406 ft 5 kts 115°
2026-05-07 20:50 48.99663 2.55116 406 ft 11 kts 116°
2026-05-07 20:50 48.99617 2.55254 406 ft 18 kts 116°
2026-05-07 20:51 48.99578 2.55377 406 ft 0 kts 85°
2026-05-07 20:52 48.99582 2.55450 406 ft 22 kts 85°
2026-05-07 20:52 48.99611 2.55994 406 ft 83 kts 85°
2026-05-07 20:53 48.99675 2.57197 406 ft 141 kts 85°
2026-05-07 20:53 48.99765 2.58921 517 ft 179 kts 85°
2026-05-07 20:53 48.99868 2.60862 1123 ft 186 kts 83°
2026-05-07 20:53 48.99998 2.62811 1943 ft 186 kts 84°
2026-05-07 20:54 49.00105 2.64809 2684 ft 190 kts 85°
2026-05-07 20:54 49.00202 2.66826 3436 ft 192 kts 85°
2026-05-07 20:54 49.00301 2.68913 4018 ft 205 kts 85°
2026-05-07 20:54 49.00413 2.71154 4358 ft 227 kts 85°
2026-05-07 20:55 49.00543 2.73681 4694 ft 251 kts 85°
2026-05-07 20:55 49.00682 2.76409 5296 ft 263 kts 86°
2026-05-07 20:55 49.00822 2.79237 6074 ft 269 kts 86°
2026-05-07 20:55 49.00802 2.82103 6904 ft 271 kts 97°
2026-05-07 20:56 49.00408 2.84932 7687 ft 276 kts 104°
2026-05-07 20:56 48.99915 2.87807 8458 ft 281 kts 104°
2026-05-07 20:56 48.99470 2.90718 9307 ft 285 kts 103°
2026-05-07 20:56 48.99074 2.93677 10055 ft 290 kts 102°
2026-05-07 20:57 48.98633 2.96737 10639 ft 303 kts 110°
2026-05-07 20:57 48.97516 2.99548 11137 ft 315 kts 134°
2026-05-07 20:57 48.95708 3.01468 11798 ft 323 kts 157°
2026-05-07 20:57 48.93502 3.02182 12596 ft 327 kts 180°
2026-05-07 20:58 48.91295 3.01565 13468 ft 329 kts 202°
2026-05-07 20:58 48.89326 2.99782 14342 ft 331 kts 219°
2026-05-07 20:58 48.87662 2.97273 15227 ft 335 kts 226°
2026-05-07 20:58 48.85987 2.94774 16063 ft 340 kts 221°
2026-05-07 20:59 48.84041 2.92702 16927 ft 345 kts 211°
2026-05-07 20:59 48.81847 2.91147 17788 ft 349 kts 203°
2026-05-07 20:59 48.79547 2.89811 18583 ft 354 kts 202°
2026-05-07 20:59 48.77222 2.88506 19392 ft 358 kts 201°
2026-05-07 21:00 48.74896 2.87242 20144 ft 363 kts 201°
2026-05-07 21:00 48.72493 2.85950 20926 ft 367 kts 201°
2026-05-07 21:00 48.70069 2.84645 21671 ft 371 kts 201°
2026-05-07 21:00 48.67625 2.83329 22421 ft 375 kts 201°
2026-05-07 21:01 48.65141 2.81992 23138 ft 380 kts 201°
2026-05-07 21:01 48.62647 2.80649 23874 ft 383 kts 201°
2026-05-07 21:01 48.60117 2.79289 24577 ft 387 kts 201°
2026-05-07 21:01 48.57561 2.77915 25272 ft 391 kts 201°
2026-05-07 21:02 48.54983 2.76531 25954 ft 395 kts 201°
2026-05-07 21:02 48.52391 2.75141 26649 ft 398 kts 201°
2026-05-07 21:02 48.49766 2.73735 27315 ft 402 kts 201°
2026-05-07 21:02 48.47110 2.72314 27961 ft 406 kts 201°
2026-05-07 21:03 48.44441 2.70887 28619 ft 409 kts 201°
2026-05-07 21:03 48.41754 2.69452 29228 ft 413 kts 201°
2026-05-07 21:03 48.39033 2.68000 29842 ft 416 kts 202°
2026-05-07 21:03 48.36290 2.66519 30419 ft 419 kts 202°
2026-05-07 21:04 48.33561 2.65055 30976 ft 422 kts 202°
2026-05-07 21:04 48.30770 2.63568 31488 ft 426 kts 202°
2026-05-07 21:04 48.27971 2.62084 31990 ft 429 kts 201°
2026-05-07 21:04 48.25143 2.60587 32496 ft 431 kts 202°
2026-05-07 21:05 48.22298 2.59084 32917 ft 436 kts 202°
2026-05-07 21:05 48.19417 2.57563 33053 ft 441 kts 202°
2026-05-07 21:05 48.16491 2.56019 33059 ft 451 kts 202°
2026-05-07 21:06 48.10409 2.53160 33053 ft 468 kts 192°
2026-05-07 21:06 48.07128 2.52819 33056 ft 474 kts 181°
2026-05-07 21:06 48.03889 2.53430 33056 ft 478 kts 171°
2026-05-07 21:07 47.97542 2.56438 33057 ft 480 kts 163°
2026-05-07 21:07 47.91278 2.59911 33054 ft 479 kts 163°
2026-05-07 21:08 47.84978 2.63131 33048 ft 478 kts 165°
2026-05-07 21:08 47.78636 2.66232 33044 ft 478 kts 165°
2026-05-07 21:09 47.72312 2.69331 33039 ft 478 kts 165°
2026-05-07 21:09 47.66172 2.72341 33036 ft 478 kts 165°
2026-05-07 21:10 47.59853 2.75415 33032 ft 478 kts 165°
2026-05-07 21:10 47.53527 2.78480 33028 ft 478 kts 165°
2026-05-07 21:11 47.47198 2.81538 33024 ft 478 kts 165°
2026-05-07 21:11 47.37715 2.86128 33019 ft 478 kts 165°
2026-05-07 21:12 47.31427 2.89146 33015 ft 477 kts 165°
2026-05-07 21:12 47.26162 2.91661 33013 ft 477 kts 165°
2026-05-07 21:13 47.19829 2.94679 33010 ft 477 kts 165°
2026-05-07 21:13 47.13502 2.97689 33006 ft 477 kts 165°
2026-05-07 21:14 47.07187 3.00527 33000 ft 476 kts 167°
2026-05-07 21:14 47.00762 3.03098 32996 ft 476 kts 168°
2026-05-07 21:15 46.94378 3.05667 32995 ft 476 kts 168°
2026-05-07 21:15 46.87982 3.08264 32996 ft 475 kts 168°
2026-05-07 21:16 46.81608 3.10855 32995 ft 475 kts 168°
2026-05-07 21:16 46.75280 3.13445 32992 ft 476 kts 167°
2026-05-07 21:17 46.68900 3.16057 32989 ft 476 kts 168°
2026-05-07 21:17 46.62532 3.18646 32989 ft 476 kts 168°
2026-05-07 21:18 46.56140 3.21235 32987 ft 475 kts 168°
2026-05-07 21:18 46.49761 3.23811 32983 ft 475 kts 168°
2026-05-07 21:19 46.43386 3.26378 32980 ft 475 kts 168°
2026-05-07 21:19 46.37064 3.28919 32981 ft 475 kts 168°
2026-05-07 21:20 46.30642 3.31492 32975 ft 475 kts 168°
2026-05-07 21:20 46.24279 3.34037 32969 ft 475 kts 168°
2026-05-07 21:21 46.17912 3.36577 32965 ft 475 kts 168°
2026-05-07 21:21 46.11532 3.39135 32965 ft 475 kts 168°
2026-05-07 21:22 46.05210 3.41643 32971 ft 475 kts 168°
2026-05-07 21:22 45.98823 3.44165 32981 ft 475 kts 168°
2026-05-07 21:23 45.92452 3.46677 32992 ft 473 kts 168°
2026-05-07 21:23 45.86220 3.49807 33000 ft 479 kts 158°
2026-05-07 21:24 45.80385 3.54554 33007 ft 483 kts 152°
2026-05-07 21:24 45.74766 3.59878 33013 ft 484 kts 150°
2026-05-07 21:25 45.69150 3.65207 33022 ft 484 kts 150°
2026-05-07 21:25 45.63506 3.70501 33022 ft 484 kts 150°
2026-05-07 21:26 45.57894 3.75837 33021 ft 484 kts 150°
2026-05-07 21:26 45.52265 3.81097 33023 ft 483 kts 151°
2026-05-07 21:27 45.46631 3.86328 33021 ft 484 kts 151°
2026-05-07 21:27 45.40985 3.91560 33020 ft 484 kts 151°
2026-05-07 21:28 45.35738 3.97573 33020 ft 492 kts 138°
2026-05-07 21:28 45.31433 4.05179 33019 ft 498 kts 129°
2026-05-07 21:29 45.27463 4.13284 33019 ft 499 kts 130°
2026-05-07 21:29 45.23362 4.21248 33018 ft 500 kts 130°
2026-05-07 21:30 45.19286 4.29249 33015 ft 500 kts 130°
2026-05-07 21:30 45.15193 4.37220 33012 ft 500 kts 130°
2026-05-07 21:31 45.11090 4.45171 33006 ft 500 kts 132°
2026-05-07 21:31 45.06665 4.52732 33000 ft 497 kts 136°
2026-05-07 21:32 45.02041 4.59999 32985 ft 497 kts 137°
2026-05-07 21:32 44.97451 4.67312 32979 ft 498 kts 136°
2026-05-07 21:33 44.92879 4.74670 32973 ft 498 kts 136°
2026-05-07 21:33 44.88307 4.82039 32966 ft 499 kts 136°
2026-05-07 21:34 44.83776 4.89453 32966 ft 499 kts 136°
2026-05-07 21:34 44.79211 4.96841 32966 ft 499 kts 137°
2026-05-07 21:35 44.74644 5.04188 32969 ft 499 kts 137°
2026-05-07 21:35 44.70089 5.11490 32973 ft 500 kts 137°
2026-05-07 21:36 44.65486 5.18848 32977 ft 500 kts 137°
2026-05-07 21:36 44.60880 5.26193 32980 ft 500 kts 137°
2026-05-07 21:37 44.56316 5.33515 32982 ft 501 kts 137°
2026-05-07 21:37 44.51705 5.40835 32982 ft 501 kts 137°
2026-05-07 21:38 44.47071 5.48137 32983 ft 501 kts 138°
2026-05-07 21:38 44.42432 5.55432 32985 ft 503 kts 138°
2026-05-07 21:39 44.37823 5.62803 32986 ft 506 kts 135°
2026-05-07 21:39 44.33696 5.70864 32988 ft 512 kts 130°
2026-05-07 21:40 44.29770 5.79162 32999 ft 511 kts 130°
2026-05-07 21:40 44.25988 5.86970 32998 ft 511 kts 130°
2026-05-07 21:41 44.21977 5.95153 33005 ft 512 kts 131°
2026-05-07 21:41 44.17949 6.03347 33010 ft 512 kts 130°
2026-05-07 21:42 44.13961 6.11585 33012 ft 512 kts 130°
2026-05-07 21:42 44.09969 6.19728 33022 ft 512 kts 131°
2026-05-07 21:43 44.05937 6.27895 33024 ft 511 kts 131°
2026-05-07 21:43 44.01891 6.36061 33023 ft 511 kts 131°
2026-05-07 21:44 43.97850 6.44193 33023 ft 512 kts 131°
2026-05-07 21:44 43.93798 6.52326 33023 ft 511 kts 131°
2026-05-07 21:45 43.89769 6.60409 33023 ft 512 kts 131°
2026-05-07 21:45 43.85734 6.68537 33023 ft 512 kts 131°
2026-05-07 21:46 43.81658 6.76618 33024 ft 511 kts 131°
2026-05-07 21:46 43.77585 6.84667 33023 ft 512 kts 131°
2026-05-07 21:47 43.73497 6.92736 33023 ft 511 kts 131°
2026-05-07 21:47 43.69188 7.00472 33024 ft 505 kts 137°
2026-05-07 21:48 43.64528 7.07711 33024 ft 505 kts 139°
2026-05-07 21:48 43.59892 7.15041 33023 ft 506 kts 138°
2026-05-07 21:49 43.56171 7.21344 33023 ft 515 kts 131°
2026-05-07 21:49 43.52608 7.30023 33022 ft 522 kts 123°
2026-05-07 21:50 43.49518 7.39142 33024 ft 525 kts 120°
2026-05-07 21:50 43.46516 7.48320 33025 ft 526 kts 120°
2026-05-07 21:51 43.43468 7.57509 33027 ft 525 kts 120°
2026-05-07 21:51 43.40444 7.66579 33029 ft 525 kts 120°
2026-05-07 21:52 43.37443 7.75767 32511 ft 523 kts 120°
2026-05-07 21:52 43.35946 7.80292 31860 ft 520 kts 120°
2026-05-07 21:52 43.34438 7.84820 31189 ft 520 kts 120°
2026-05-07 21:53 43.32933 7.89319 30523 ft 520 kts 120°
2026-05-07 21:53 43.31426 7.93815 29969 ft 517 kts 120°
2026-05-07 21:53 43.29910 7.98311 29368 ft 515 kts 120°
2026-05-07 21:53 43.28444 8.02690 28843 ft 511 kts 120°
2026-05-07 21:54 43.26969 8.07127 28245 ft 509 kts 119°
2026-05-07 21:54 43.25488 8.11577 27687 ft 506 kts 119°
2026-05-07 21:54 43.24028 8.15900 27116 ft 502 kts 119°
2026-05-07 21:54 43.22548 8.20247 26584 ft 498 kts 119°
2026-05-07 21:55 43.21092 8.24506 26086 ft 494 kts 118°
2026-05-07 21:55 43.19639 8.28760 25526 ft 490 kts 118°
2026-05-07 21:55 43.18193 8.32997 25111 ft 486 kts 118°
2026-05-07 21:55 43.16764 8.37172 24574 ft 482 kts 117°
2026-05-07 21:56 43.15504 8.41342 24058 ft 479 kts 112°
2026-05-07 21:56 43.14469 8.45704 23520 ft 476 kts 108°
2026-05-07 21:56 43.13616 8.50074 22993 ft 473 kts 105°
2026-05-07 21:56 43.12907 8.54454 22453 ft 470 kts 103°
2026-05-07 21:57 43.12304 8.58834 21929 ft 466 kts 102°
2026-05-07 21:57 43.11750 8.63183 21389 ft 463 kts 102°
2026-05-07 21:57 43.11199 8.67517 20862 ft 459 kts 101°
2026-05-07 21:57 43.10656 8.71794 20327 ft 455 kts 102°
2026-05-07 21:58 43.10078 8.76034 19806 ft 451 kts 102°
2026-05-07 21:58 43.09475 8.80233 19277 ft 447 kts 103°
2026-05-07 21:58 43.08871 8.84384 18747 ft 443 kts 103°
2026-05-07 21:58 43.08274 8.88493 18226 ft 439 kts 103°
2026-05-07 21:59 43.07677 8.92599 17696 ft 436 kts 103°
2026-05-07 21:59 43.07090 8.96634 17177 ft 432 kts 103°
2026-05-07 21:59 43.06504 9.00660 16641 ft 429 kts 103°
2026-05-07 21:59 43.05716 9.04510 16123 ft 421 kts 114°
2026-05-07 22:00 43.04201 9.07942 15611 ft 413 kts 131°
2026-05-07 22:00 43.02247 9.10654 15284 ft 402 kts 140°
2026-05-07 22:00 43.00061 9.12955 14918 ft 393 kts 148°
2026-05-07 22:00 42.97733 9.14869 14498 ft 387 kts 152°
2026-05-07 22:01 42.95384 9.16643 14030 ft 383 kts 153°
2026-05-07 22:01 42.93079 9.18419 13540 ft 381 kts 152°
2026-05-07 22:01 42.90809 9.20260 13054 ft 379 kts 150°
2026-05-07 22:01 42.88567 9.22096 12832 ft 368 kts 151°
2026-05-07 22:02 42.86442 9.23835 12590 ft 346 kts 150°
2026-05-07 22:02 42.84434 9.25485 12301 ft 328 kts 150°
2026-05-07 22:02 42.82525 9.27065 11981 ft 313 kts 150°
2026-05-07 22:02 42.80704 9.28561 11578 ft 303 kts 150°
2026-05-07 22:03 42.78899 9.30036 11134 ft 301 kts 150°
2026-05-07 22:03 42.77117 9.31487 10825 ft 299 kts 150°
2026-05-07 22:03 42.75338 9.32933 10652 ft 292 kts 150°
2026-05-07 22:03 42.73615 9.34331 10500 ft 286 kts 150°
2026-05-07 22:04 42.71933 9.35694 10287 ft 281 kts 150°
2026-05-07 22:04 42.70240 9.37066 9886 ft 284 kts 150°
2026-05-07 22:04 42.68525 9.38454 9506 ft 286 kts 150°
2026-05-07 22:04 42.66817 9.39837 9188 ft 286 kts 150°
2026-05-07 22:05 42.65112 9.41215 8867 ft 285 kts 150°
2026-05-07 22:05 42.63412 9.42590 8574 ft 284 kts 150°
2026-05-07 22:05 42.61737 9.43944 8286 ft 282 kts 150°
2026-05-07 22:05 42.60030 9.45322 7993 ft 281 kts 150°
2026-05-07 22:06 42.58368 9.46702 7949 ft 278 kts 146°
2026-05-07 22:06 42.56868 9.48324 7950 ft 281 kts 139°
2026-05-07 22:06 42.55472 9.50211 7757 ft 287 kts 134°
2026-05-07 22:06 42.54145 9.52229 7414 ft 288 kts 131°
2026-05-07 22:07 42.52847 9.54278 7103 ft 287 kts 131°
2026-05-07 22:07 42.51526 9.56320 6793 ft 286 kts 132°
2026-05-07 22:07 42.50201 9.58330 6489 ft 285 kts 132°
2026-05-07 22:07 42.48892 9.60304 6190 ft 283 kts 132°
2026-05-07 22:08 42.47565 9.62238 5906 ft 275 kts 135°
2026-05-07 22:08 42.46171 9.63895 5754 ft 258 kts 144°
2026-05-07 22:08 42.44631 9.64953 5612 ft 242 kts 160°
2026-05-07 22:08 42.43014 9.65532 5537 ft 239 kts 166°
2026-05-07 22:09 42.41381 9.66051 5350 ft 241 kts 166°
2026-05-07 22:09 42.39760 9.66549 5223 ft 238 kts 173°
2026-05-07 22:09 42.38142 9.66241 5104 ft 238 kts 199°
2026-05-07 22:09 42.36681 9.65149 4820 ft 244 kts 217°
2026-05-07 22:10 42.35646 9.63318 4210 ft 250 kts 244°
2026-05-07 22:10 42.35339 9.61003 3468 ft 256 kts 271°
2026-05-07 22:10 42.35789 9.58671 2891 ft 255 kts 291°
2026-05-07 22:10 42.36622 9.56655 2692 ft 237 kts 306°
2026-05-07 22:11 42.37811 9.55292 2580 ft 218 kts 331°
2026-05-07 22:11 42.39186 9.54626 2500 ft 201 kts 342°
2026-05-07 22:11 42.40499 9.54165 2424 ft 188 kts 347°
2026-05-07 22:11 42.41733 9.53836 2377 ft 174 kts 349°
2026-05-07 22:12 42.42877 9.53513 2297 ft 163 kts 346°
2026-05-07 22:12 42.43949 9.53113 2115 ft 157 kts 344°
2026-05-07 22:12 42.44975 9.52694 1946 ft 150 kts 343°
2026-05-07 22:12 42.45874 9.52315 1800 ft 150 kts 342°
2026-05-07 22:13 42.46868 9.51893 1580 ft 150 kts 342°
2026-05-07 22:13 42.47857 9.51450 1422 ft 149 kts 341°
2026-05-07 22:13 42.48848 9.51031 1175 ft 151 kts 341°
2026-05-07 22:13 42.49857 9.50623 944 ft 149 kts 342°
2026-05-07 22:14 42.50847 9.50252 756 ft 148 kts 342°
2026-05-07 22:14 42.51829 9.49819 582 ft 149 kts 341°
2026-05-07 22:14 42.52818 9.49404 362 ft 148 kts 341°
2026-05-07 22:14 42.53810 9.48986 149 ft 150 kts 341°
2026-05-07 22:15 42.54752 9.48584 40 ft 125 kts 343°
2026-05-07 22:15 42.55383 9.48321 40 ft 77 kts 342°
2026-05-07 22:15 42.55839 9.48133 40 ft 57 kts 342°
2026-05-07 22:15 42.55952 9.48038 40 ft 8 kts 278°
2026-05-07 22:16 42.55949 9.47960 40 ft 11 kts 255°
2026-05-07 22:16 42.55919 9.47884 40 ft 8 kts 221°
2026-05-07 22:16 42.55876 9.47869 40 ft 7 kts 176°
2026-05-07 22:16 42.55819 9.47889 40 ft 10 kts 163°
2026-05-07 22:17 42.55738 9.47920 40 ft 14 kts 163°
2026-05-07 22:17 42.55642 9.47960 40 ft 17 kts 163°
2026-05-07 22:17 42.55507 9.48017 40 ft 23 kts 162°
2026-05-07 22:17 42.55339 9.48088 40 ft 27 kts 163°
2026-05-07 22:18 42.55145 9.48168 40 ft 30 kts 162°
2026-05-07 22:18 42.54819 9.48284 40 ft 21 kts 162°
2026-05-07 22:18 42.54700 9.48334 40 ft 16 kts 163°
2026-05-07 22:19 42.54596 9.48378 40 ft 18 kts 162°
2026-05-07 22:19 42.54523 9.48392 40 ft 3 kts 230°
2026-05-07 22:19 42.54516 9.48340 40 ft 9 kts 274°
2026-05-07 22:19 42.54521 9.48310 40 ft 0 kts 283°